Crookston, MN

5:15 AM CDT on March 26, 2017 (GMT -0500)
Crookston Municipal-Kirkwood

Weather History for KCKN - May, 2013

Change the Weather History Date:

Wednesday, May 29, 2013

  Actual Average Record
Temperature  
Mean Temperature 66 °F -  
Max Temperature 75 °F 67 °F 89 °F (1999)
Min Temperature 57 °F 45 °F 37 °F (1998)
Cooling Degree Days 1    
Growing Degree Days 16 (Base 50)    
Moisture  
Dew Point 57 °F    
Average Humidity 76    
Maximum Humidity 94    
Minimum Humidity 53    
Precipitation  
Precipitation 0.00 in - - ()
Sea Level Pressure  
Sea Level Pressure 29.67 in    
Wind  
Wind Speed 9 mph (South)    
Max Wind Speed 15 mph    
Max Gust Speed 17 mph    
Visibility 9 miles    
Events Rain    
Averages and records for this station are not official NWS values.
T = Trace of Precipitation, MM = Missing Value Source: NWS Daily Summary

Daily Weather History Graph

Daily Weather History Graph

Search for Another Location

Airport or City:

Trip Planner

Search our weather history database for the weather conditions in past years. The results will help you decide how hot, cold, wet, or windy it might be!

Date:

Astronomy

May. 29, 2013 Rise Set
Actual Time 5:33 AM CDT 9:14 PM CDT
Civil Twilight 4:54 AM CDT 9:54 PM CDT
Nautical Twilight 4:01 AM CDT 10:47 PM CDT
Astronomical Twilight 2:47 AM CDT 12:02 AM CDT
Moon 12:27 AM CDT (5/29) 10:46 AM CDT (5/29)
Length of Visible Light 16h 59m
Length of Day
15h 40m
Waning Gibbous, 73% of the Moon is Illuminated
May 29
Waning Gibbous
May 31
Last Quarter
Jun 8
New
Jun 16
First Quarter
Jun 23
Full

Hourly Weather History & Observations

Time (CDT) Temp. Dew Point Humidity Pressure Visibility Wind Dir Wind Speed Gust Speed Precip Events Conditions
12:14 AM 62.6 °F 55.4 °F 77% 29.65 in 10.0 mi South 11.5 mph 17.3 mph N/A   Clear
12:35 AM 62.6 °F 55.4 °F 77% 29.65 in 10.0 mi South 13.8 mph - N/A   Clear
12:54 AM 60.8 °F 55.4 °F 82% 29.65 in 10.0 mi SSW 11.5 mph - N/A   Clear
1:14 AM 60.8 °F 55.4 °F 82% 29.65 in 10.0 mi South 12.7 mph 17.3 mph N/A   Clear
1:35 AM 60.8 °F 55.4 °F 82% 29.67 in 10.0 mi SSW 13.8 mph - N/A   Clear
1:54 AM 60.8 °F 55.4 °F 82% 29.66 in 10.0 mi SSW 11.5 mph - N/A   Clear
2:14 AM 60.8 °F 55.4 °F 82% 29.68 in 10.0 mi SSW 12.7 mph - N/A   Clear
2:35 AM 60.8 °F 55.4 °F 82% 29.68 in 10.0 mi SSW 12.7 mph - N/A   Clear
2:54 AM 60.8 °F 55.4 °F 82% 29.68 in 10.0 mi South 13.8 mph - N/A   Clear
3:15 AM 60.8 °F 55.4 °F 82% 29.68 in 10.0 mi South 13.8 mph - N/A   Clear
3:35 AM 59.0 °F 55.4 °F 88% 29.68 in 10.0 mi South 10.4 mph - N/A   Clear
3:54 AM 57.2 °F 55.4 °F 94% 29.67 in 7.0 mi South 8.1 mph - N/A   Scattered Clouds
4:15 AM 57.2 °F 55.4 °F 94% 29.66 in 7.0 mi South 8.1 mph - N/A   Clear
4:35 AM 57.2 °F 55.4 °F 94% 29.66 in 7.0 mi South 8.1 mph - N/A   Scattered Clouds
4:54 AM 57.2 °F 55.4 °F 94% - 7.0 mi South 11.5 mph - N/A   Scattered Clouds
5:15 AM 57.2 °F 55.4 °F 94% 29.67 in 7.0 mi South 9.2 mph - N/A   Mostly Cloudy
5:35 AM 57.2 °F 55.4 °F 94% 29.68 in 7.0 mi South 10.4 mph - N/A   Overcast
5:54 AM 57.2 °F 55.4 °F 94% 29.68 in 5.0 mi South 8.1 mph - N/A   Scattered Clouds
6:15 AM 57.2 °F 55.4 °F 94% 29.68 in 4.0 mi South 9.2 mph - N/A   Clear
6:35 AM 57.2 °F 55.4 °F 94% 29.68 in 5.0 mi South 9.2 mph - N/A   Clear
6:54 AM 57.2 °F 55.4 °F 94% 29.69 in 5.0 mi South 9.2 mph - N/A   Clear
7:15 AM 57.2 °F 55.4 °F 94% 29.69 in 5.0 mi South 6.9 mph - N/A   Clear
7:34 AM 59.0 °F 55.4 °F 88% - 7.0 mi SSW 6.9 mph - N/A   Clear
7:54 AM 60.8 °F 55.4 °F 82% 29.67 in 7.0 mi SSW 4.6 mph - N/A   Clear
8:15 AM 62.6 °F 57.2 °F 82% 29.66 in 10.0 mi South 3.5 mph - N/A   Clear
8:34 AM 62.6 °F 55.4 °F 77% 29.66 in 10.0 mi Calm Calm - N/A   Clear
8:54 AM 64.4 °F 55.4 °F 73% 29.67 in 10.0 mi Calm Calm - N/A   Clear
9:15 AM 64.4 °F 57.2 °F 77% 29.68 in 10.0 mi South 4.6 mph - N/A   Clear
9:34 AM 66.2 °F 57.2 °F 73% 29.69 in 10.0 mi SSW 8.1 mph - N/A   Clear
9:54 AM 66.2 °F 57.2 °F 73% 29.68 in 10.0 mi SW 5.8 mph - N/A   Clear
10:15 AM 69.8 °F 57.2 °F 64% 29.69 in 10.0 mi SSW 11.5 mph - N/A   Clear
10:34 AM 71.6 °F 57.2 °F 60% 29.69 in 10.0 mi SSW 10.4 mph - N/A   Clear
10:55 AM 71.6 °F 57.2 °F 60% 29.69 in 10.0 mi SSW 10.4 mph - N/A   Clear
11:15 AM 71.6 °F 57.2 °F 60% 29.68 in 10.0 mi SSW 9.2 mph - N/A   Clear
11:34 AM 73.4 °F 59.0 °F 61% 29.68 in 10.0 mi South 8.1 mph - N/A   Clear
11:55 AM 73.4 °F 57.2 °F 57% 29.68 in 10.0 mi SW 6.9 mph - N/A   Clear
12:15 PM 73.4 °F 57.2 °F 57% 29.68 in 10.0 mi SSW 9.2 mph - N/A   Clear
12:35 PM 73.4 °F 57.2 °F 57% 29.69 in 10.0 mi SSW 10.4 mph - N/A   Clear
12:54 PM 73.4 °F 57.2 °F 57% 29.70 in 10.0 mi SSW 11.5 mph - N/A Rain Light Rain
1:15 PM 71.6 °F 60.8 °F 69% 29.70 in 10.0 mi WSW 9.2 mph - N/A Rain Light Rain
1:34 PM 71.6 °F 60.8 °F 69% 29.69 in 10.0 mi WSW 4.6 mph - N/A Rain Light Rain
1:54 PM 71.6 °F 60.8 °F 69% 29.69 in 10.0 mi WNW 5.8 mph - N/A   Light Drizzle
2:15 PM 71.6 °F 59.0 °F 64% 29.69 in 10.0 mi Calm Calm - N/A   Mostly Cloudy
2:34 PM 73.4 °F 59.0 °F 61% 29.69 in 10.0 mi SSW 5.8 mph - N/A   Mostly Cloudy
2:54 PM 73.4 °F 57.2 °F 57% 29.68 in 10.0 mi Calm Calm - N/A   Mostly Cloudy
3:15 PM 73.4 °F 57.2 °F 57% 29.68 in 10.0 mi SSE 4.6 mph - N/A   Mostly Cloudy
3:34 PM 73.4 °F 57.2 °F 57% 29.68 in 10.0 mi SSE 5.8 mph - N/A   Overcast
3:54 PM 73.4 °F 57.2 °F 57% 29.68 in 10.0 mi Calm Calm - N/A   Mostly Cloudy
4:14 PM 73.4 °F 57.2 °F 57% 29.67 in 10.0 mi Calm Calm - N/A   Mostly Cloudy
4:34 PM 75.2 °F 57.2 °F 53% 29.66 in 10.0 mi Calm Calm - N/A   Scattered Clouds
4:55 PM 69.8 °F 60.8 °F 73% 29.67 in 10.0 mi South 15.0 mph - N/A   Mostly Cloudy
5:14 PM 69.8 °F 60.8 °F 73% 29.66 in 10.0 mi SSE 13.8 mph - N/A   Scattered Clouds
5:34 PM 69.8 °F 57.2 °F 64% 29.66 in 10.0 mi South 11.5 mph - N/A   Scattered Clouds
5:55 PM 68.0 °F 57.2 °F 68% 29.67 in 10.0 mi South 12.7 mph - N/A   Mostly Cloudy
6:14 PM 66.2 °F 57.2 °F 73% 29.67 in 10.0 mi SSE 12.7 mph - N/A   Mostly Cloudy
6:34 PM 66.2 °F 57.2 °F 73% 29.65 in 10.0 mi SSE 10.4 mph - N/A   Scattered Clouds
6:55 PM 66.2 °F 57.2 °F 73% 29.63 in 10.0 mi ESE 6.9 mph - N/A   Clear
7:14 PM 64.4 °F 57.2 °F 77% 29.64 in 10.0 mi SE 5.8 mph - N/A   Clear
7:34 PM 64.4 °F 57.2 °F 77% 29.65 in 10.0 mi SE 5.8 mph - N/A   Clear
7:55 PM 64.4 °F 57.2 °F 77% 29.65 in 10.0 mi SE 6.9 mph - N/A   Clear
8:14 PM 64.4 °F 57.2 °F 77% 29.65 in 10.0 mi SE 8.1 mph - N/A   Scattered Clouds
8:34 PM 64.4 °F 57.2 °F 77% 29.64 in 10.0 mi East 4.6 mph - N/A   Scattered Clouds
8:55 PM 64.4 °F 57.2 °F 77% 29.63 in 10.0 mi NE 3.5 mph - N/A   Clear
9:14 PM 64.4 °F 57.2 °F 77% 29.64 in 10.0 mi Calm Calm - N/A   Scattered Clouds
9:35 PM 64.4 °F 57.2 °F 77% 29.65 in 10.0 mi East 3.5 mph - N/A   Scattered Clouds
9:55 PM 64.4 °F 59.0 °F 83% 29.66 in 10.0 mi Calm Calm - N/A   Scattered Clouds
10:14 PM 64.4 °F 59.0 °F 83% 29.66 in 10.0 mi Calm Calm - N/A   Mostly Cloudy
10:35 PM 64.4 °F 59.0 °F 83% 29.65 in 10.0 mi ENE 5.8 mph - N/A   Scattered Clouds
10:55 PM 62.6 °F 59.0 °F 88% 29.66 in 10.0 mi ENE 3.5 mph - N/A   Mostly Cloudy
11:14 PM 62.6 °F 59.0 °F 88% 29.66 in 10.0 mi ENE 3.5 mph - N/A   Overcast
11:35 PM 64.4 °F 59.0 °F 83% 29.65 in 10.0 mi East 4.6 mph - N/A Rain Light Rain
11:55 PM 62.6 °F 59.0 °F 88% 29.65 in 10.0 mi East 8.1 mph - N/A   Light Drizzle